DateTimeUTC,F1_A11,F1_S11,BsB_S11,BsG_S11,BsR_S11,BbsB_S11,BbsG_S11,BbsR_S11,BaB_A11,BaG_A11,BaR_A11,Tu_S11,T_S11,Uu_S11,U_S11,P_S11,T1_A11
2021-02-08T06:00:00Z,00000200,21000000,,,,,,,0000.21,0000.20,0000.08,15.7,23.1,,00.0,0657.2,30.9
2021-02-08T06:01:00Z,00000200,21000000,,,,,,,-000.03,-000.07,-000.12,15.7,23.1,,00.0,0657.2,30.9
2021-02-08T06:02:00Z,00000200,21000000,,,,,,,-000.07,0000.26,-000.06,15.7,23.1,,00.0,0657.1,30.9
2021-02-08T06:03:00Z,00000200,61000000,,,,,,,0000.24,0000.40,0000.29,15.7,23.1,,00.0,0657.1,30.9
2021-02-08T06:04:00Z,00000200,41000000,0002.12,0001.03,0000.55,0000.74,0000.41,-000.17,0000.78,0000.41,0000.40,16.0,23.0,,00.0,0657.8,30.9
2021-02-08T06:05:00Z,00000200,01000000,0001.80,0001.13,0000.79,0000.21,0000.11,0000.20,0000.23,0000.09,0000.00,16.1,22.9,,00.0,0657.8,30.9
2021-02-08T06:06:00Z,00000200,01000000,0001.96,0001.30,0000.58,0000.48,0000.09,0000.32,0000.52,0000.63,0000.40,16.0,22.9,,00.0,0657.8,30.9
2021-02-08T06:07:00Z,00000200,01000000,0002.00,0001.35,0000.98,0000.82,0000.45,-000.03,0000.30,0000.34,0000.55,16.0,22.8,,00.0,0657.9,30.9
2021-02-08T06:08:00Z,00000200,01000000,0001.86,0001.36,0000.75,0000.35,0000.26,0000.22,0000.64,0000.36,-000.07,15.9,22.8,,00.0,0657.9,30.9
2021-02-08T06:09:00Z,00000200,01000000,0002.30,0001.49,0000.87,0000.64,0000.34,-000.05,0000.27,0000.02,0000.21,15.8,22.8,,00.0,0657.9,30.9
2021-02-08T06:10:00Z,00000200,01000000,0001.94,0001.09,0000.79,0000.98,0000.18,0000.29,-000.11,0000.48,-000.08,15.8,22.7,,00.0,0658.0,30.9
2021-02-08T06:11:00Z,00000200,01000000,0003.23,0001.31,0000.91,0000.63,-000.09,0000.32,0000.45,0000.27,0000.39,15.7,22.7,,00.0,0658.0,30.9
2021-02-08T06:12:00Z,00000200,01000000,0001.72,0001.23,0000.69,0000.37,0000.18,-000.02,0000.37,0000.11,0000.00,15.6,22.7,,00.0,0658.0,30.9
2021-02-08T06:13:00Z,00000200,01000000,0001.73,0001.24,0000.90,0000.37,0000.19,0000.22,0000.48,0000.69,0000.06,15.6,22.6,,00.0,0658.0,30.9
2021-02-08T06:14:00Z,00000200,01000000,0001.64,0001.28,0000.92,0000.33,0000.34,0000.47,0000.59,0000.20,0000.58,15.5,22.6,,00.0,0658.0,30.9
2021-02-08T06:15:00Z,00000200,01000000,0001.85,0001.60,0000.59,0000.47,0000.34,0000.00,0000.74,0000.53,0000.43,15.5,22.6,,00.0,0658.1,30.9
2021-02-08T06:16:00Z,00000200,01000000,0002.27,0001.39,0000.48,0000.71,0000.39,0000.28,0000.45,0000.55,0000.69,15.6,22.6,,00.0,0658.1,30.9
2021-02-08T06:17:00Z,00000200,01000000,0001.85,0001.26,0000.59,0000.75,0000.19,0000.17,0000.55,0000.33,0000.19,15.6,22.6,,00.0,0658.1,30.9
2021-02-08T06:18:00Z,00000200,01000000,0002.62,0001.25,0000.54,0000.55,0000.18,-000.08,0000.75,0000.87,0000.25,15.7,22.6,,00.0,0658.1,30.9
2021-02-08T06:19:00Z,00000200,01000000,0001.52,0001.21,0000.58,0000.68,0000.22,0000.21,0000.48,0000.27,0000.27,15.8,22.6,,00.0,0658.1,30.9
2021-02-08T06:20:00Z,00000200,01000000,0001.79,0001.05,0000.74,0000.55,0000.26,-000.00,0000.39,0000.14,0000.52,15.8,22.7,,00.0,0658.1,30.9
2021-02-08T06:21:00Z,00000200,01000000,0001.74,0000.75,0000.76,0000.72,0000.41,-000.03,0000.19,0000.59,0000.08,15.9,22.7,,00.0,0658.1,30.9
2021-02-08T06:22:00Z,00000200,01000000,0001.99,0001.18,0000.59,0000.15,0000.31,0000.01,0000.33,0000.14,0000.48,15.9,22.7,,00.0,0658.1,30.9
2021-02-08T06:23:00Z,00000200,01000000,0002.01,0001.41,0000.85,0000.86,0000.13,0000.05,0000.32,0000.35,-000.41,15.9,22.7,,00.0,0658.1,30.9
2021-02-08T06:24:00Z,00000200,01000000,0001.77,0000.99,0000.62,0000.06,0000.13,0000.10,0000.25,0000.38,0000.67,15.8,22.7,,00.0,0658.1,30.9
2021-02-08T06:25:00Z,00000200,01000000,0002.13,0001.05,0000.60,0000.47,0000.29,0000.05,0000.40,0000.24,-000.31,15.8,22.7,,00.0,0658.2,30.9
2021-02-08T06:26:00Z,00000200,01000000,0001.68,0001.34,0000.79,0000.83,0000.29,0000.25,0000.18,0000.20,0000.23,15.7,22.6,,00.0,0658.2,30.9
2021-02-08T06:27:00Z,00000200,01000000,0001.61,0001.02,0000.69,0000.10,0000.21,0000.09,0000.50,0000.20,0000.40,15.7,22.6,,00.0,0658.3,30.9
2021-02-08T06:28:00Z,00000200,01000000,0002.10,0001.16,0000.73,0000.65,-000.01,0000.18,0000.21,0000.05,0000.08,15.6,22.6,,00.0,0658.3,30.9
2021-02-08T06:29:00Z,00000200,01000000,0002.14,0001.18,0000.68,0000.19,0000.43,0000.00,0000.41,0000.36,0000.22,15.6,22.5,,00.0,0658.2,30.9
2021-02-08T06:30:00Z,00000200,01000000,0002.08,0001.04,0000.88,0000.61,0000.32,0000.05,0000.62,0000.64,0000.64,15.6,22.5,,00.0,0658.2,30.9
2021-02-08T06:31:00Z,00000200,01000000,0001.78,0001.35,0000.71,0000.32,0000.34,0000.01,0000.61,0000.46,0000.12,15.6,22.5,,00.0,0658.2,30.9
2021-02-08T06:32:00Z,00000200,01000000,0002.36,0001.44,0000.61,0000.30,0000.26,0000.47,0000.51,0000.36,0000.51,15.6,22.5,,00.0,0658.2,30.9
2021-02-08T06:33:00Z,00000200,01000000,0002.76,0001.21,0000.79,-000.53,0000.07,-000.10,0000.36,0000.50,-000.02,15.7,22.6,,00.0,0658.2,30.9
2021-02-08T06:34:00Z,00000200,01000000,0001.51,0001.02,0000.82,0000.78,0000.19,0000.06,0000.79,0000.76,0000.73,15.7,22.6,,00.0,0658.2,30.9
2021-02-08T06:35:00Z,00000200,01000000,0002.16,0001.09,0000.83,0000.44,0000.29,0000.04,0000.39,0000.19,-000.02,15.8,22.6,,00.0,0658.1,30.9
2021-02-08T06:36:00Z,00000200,01000000,0002.28,0001.24,0000.69,0000.86,0000.20,0000.25,0000.12,0000.08,0000.28,15.9,22.6,,00.0,0658.1,30.9
2021-02-08T06:37:00Z,00000200,01000000,0001.82,0000.98,0000.75,0000.72,-000.04,0000.01,0000.27,0000.62,0000.19,15.9,22.6,,00.0,0658.1,30.9
2021-02-08T06:38:00Z,00000200,01000000,0001.59,0001.01,0000.85,0000.19,0000.24,0000.13,0000.59,0000.39,0000.55,16.0,22.7,,00.0,0658.1,30.9
2021-02-08T06:39:00Z,00000200,01000000,0001.95,0001.00,0000.91,0001.04,-000.05,0000.31,0000.46,0000.62,0000.30,16.0,22.7,,00.0,0658.0,30.9
2021-02-08T06:40:00Z,00000200,01000000,0003.10,0000.85,0000.61,0000.34,0000.16,0000.05,0000.42,0000.40,0000.02,16.1,22.7,,00.0,0658.0,30.9
2021-02-08T06:41:00Z,00000200,01000000,0001.81,0000.85,0000.65,0000.30,0000.12,0000.32,0000.49,0000.32,0000.68,16.1,22.8,,00.0,0658.0,30.9
2021-02-08T06:42:00Z,00000200,01000000,0002.29,0000.78,0000.50,0000.26,0000.38,-000.15,0000.54,0000.08,0000.12,16.2,22.8,,00.0,0658.0,30.9
2021-02-08T06:43:00Z,00000200,01000000,0001.82,0001.28,0001.05,0000.74,0000.13,0000.13,0000.28,0000.39,-000.02,16.2,22.8,,00.0,0658.0,30.9
2021-02-08T06:44:00Z,00000200,01000000,0002.07,0000.94,0000.59,0000.45,0000.54,0000.23,0000.43,0000.52,0000.58,16.2,22.8,,00.0,0658.0,30.9
2021-02-08T06:45:00Z,00000200,01000000,0002.30,0001.37,0000.70,0000.49,0000.44,0000.47,0000.27,0000.04,0000.04,16.2,22.8,,00.0,0658.1,30.9
2021-02-08T06:46:00Z,00000200,01000000,0001.97,0000.99,0000.87,0000.12,-000.01,0000.22,0000.41,0000.60,0000.23,16.2,22.8,,00.0,0658.0,30.9
2021-02-08T06:47:00Z,00000200,01000000,0001.58,0001.07,0000.73,0000.10,-000.04,0000.25,0000.47,0000.68,0000.61,16.2,22.8,,00.0,0658.0,30.9
2021-02-08T06:48:00Z,00000200,01000000,0002.01,0000.92,0000.51,-000.04,0000.33,0000.08,0000.49,-000.19,-000.34,16.3,22.9,,00.0,0658.0,30.9
2021-02-08T06:49:00Z,00000200,01000000,0001.50,0001.20,0000.49,0000.24,0000.23,0000.07,0000.33,0000.66,0000.56,16.3,22.9,,00.0,0658.0,31.0
2021-02-08T06:50:00Z,00000200,01000000,0001.77,0001.42,0000.87,0000.60,0000.22,0000.06,0000.32,0000.24,-000.02,16.4,22.9,,00.0,0658.0,31.0
2021-02-08T06:51:00Z,00000200,01000000,0001.12,0001.18,0000.67,0000.64,0000.38,-000.04,0000.09,-000.01,0000.29,16.4,22.9,,00.0,0658.0,31.0
2021-02-08T06:52:00Z,00000200,01000000,0001.02,0000.93,0000.43,0000.98,0000.38,0000.16,0000.51,0000.44,0000.51,16.3,22.9,,00.0,0658.0,30.9
2021-02-08T06:53:00Z,00000200,01000000,0002.23,0001.07,0000.50,0000.28,0000.24,0000.23,-000.05,0000.24,-000.46,16.2,22.9,,00.0,0658.0,30.9
2021-02-08T06:54:00Z,00000200,01000000,0001.33,0001.17,0000.55,0000.18,0000.38,-000.06,0000.40,0000.40,0000.35,16.2,22.9,,00.0,0658.1,30.9
2021-02-08T06:55:00Z,00000200,01000000,0002.66,0001.05,0000.70,0000.41,0000.24,0000.01,0000.39,0000.00,0000.09,16.1,22.9,,00.0,0658.1,30.9
2021-02-08T06:56:00Z,00000200,01000000,0001.75,0001.04,0000.61,0000.03,0000.09,0000.09,0000.30,0000.21,0000.17,16.0,22.8,,00.0,0658.0,30.9
2021-02-08T06:57:00Z,00000200,41000000,,,,,,,0000.40,0000.33,0000.14,16.0,22.9,,00.0,0658.1,30.9
2021-02-08T06:58:00Z,00000200,61000000,,,,,,,-000.31,-000.19,-000.03,15.5,22.9,,00.0,0657.1,30.9
2021-02-08T06:59:00Z,00000200,21000000,,,,,,,0000.11,0000.08,-000.06,15.5,23.0,,00.0,0657.1,30.9
